Weather reports worldwide

Advertisment
Shobdon, United Kingdom (3520): temperature & dewpoint: 19.09.2018 11:00:00 - 25.09.2018 11:00:00 (BST)Shobdon, United Kingdom (3520): temperature -20cm & temperature -100cm: 19.09.2018 11:00:00 - 25.09.2018 11:00:00 (BST)Shobdon, United Kingdom (3520): wind speed & gusts: 19.09.2018 11:00:00 - 25.09.2018 11:00:00 (BST)Shobdon, United Kingdom (3520): wind direction: 19.09.2018 11:00:00 - 25.09.2018 11:00:00 (BST)Shobdon, United Kingdom (3520): reduced air pressure: 19.09.2018 11:00:00 - 25.09.2018 11:00:00 (BST)Shobdon, United Kingdom (3520): visibility: 19.09.2018 11:00:00 - 25.09.2018 11:00:00 (BST)Shobdon, United Kingdom (3520): sunshine duration: 19.09.2018 11:00:00 - 25.09.2018 11:00:00 (BST)Shobdon, United Kingdom (3520): precipitation: 19.09.2018 11:00:00 - 25.09.2018 11:00:00 (BST)
Date & Time tt [°C] td [°C] tt -20cm [°C] tt -100cm [°C] ff [km/h] ff [kn] fx [km/h] fx [kn] dd ppp [hPa] vv [km] sd [min] rr [mm]
25.09.2018 11:00:00 - - - - - - - - - - - - 0,0
25.09.2018 10:00:00 8,1 6,6 13,7 15,0 4 2 - - ESE 1038,7 23 60 0,0
25.09.2018 09:00:00 4,3 4,3 - - 8 4 - - ESE 1038,9 21 60 0,0
25.09.2018 08:00:00 1,1 1,1 - - 2 1 - - ENE 1038,7 13 24 0,0
25.09.2018 07:00:00 -0,6 -0,8 - - 4 2 - - W 1038,7 12 0 0,0
25.09.2018 06:00:00 -0,3 -0,5 - - 0 0 - - N 1038,9 12 0 0,0
25.09.2018 05:00:00 -0,3 -0,6 - - 0 0 - - N 1039,1 14 0 0,0
25.09.2018 04:00:00 0,0 -0,3 - - 0 0 - - N 1039,3 17 0 0,0
25.09.2018 03:00:00 1,2 1,0 - - 2 1 - - SW 1039,7 22 0 0,0
25.09.2018 02:00:00 1,4 1,0 - - 4 2 - - WNW 1039,7 19 0 0,0
25.09.2018 01:00:00 2,6 2,2 - - 2 1 - - SW 1040,0 19 - 0,0
25.09.2018 00:00:00 4,2 4,0 - - 4 2 - - SW 1039,9 28 0 0,0
24.09.2018 23:00:00 3,4 2,9 - - 4 2 - - NNW 1040,0 23 0 0,0
24.09.2018 22:00:00 5,3 4,7 - - 2 1 - - N 1039,5 35 0 0,0
24.09.2018 21:00:00 6,5 4,0 - - 4 2 - - NNW 1039,3 35 0 0,0
24.09.2018 20:00:00 8,3 5,4 - - 9 5 - - NNW 1038,6 35 0 0,0
24.09.2018 19:00:00 10,2 5,3 - - 8 4 - - N 1038,4 40 36 0,0
24.09.2018 18:00:00 13,1 3,9 - - 8 4 - - N 1038,1 40 48 0,0
24.09.2018 17:00:00 15,3 3,8 - - 8 4 - - N 1038,1 45 54 0,0
24.09.2018 16:00:00 15,2 2,4 - - 8 4 - - NW 1038,4 40 54 0,0
24.09.2018 15:00:00 14,1 2,3 - - 11 6 - - N 1038,9 45 48 0,0
24.09.2018 14:00:00 14,9 5,1 - - 8 4 - - NNW 1039,1 35 54 0,0
24.09.2018 13:00:00 13,8 4,7 - - 9 5 - - NNW 1039,4 30 48 0,0
24.09.2018 12:00:00 13,3 5,8 - - 11 6 - - NNE 1039,6 30 36 0,0
24.09.2018 11:00:00 12,4 6,2 - - 11 6 - - NNW 1039,1 30 48 0,0
24.09.2018 10:00:00 11,1 6,2 13,9 15,2 8 4 - - NW 1039,2 28 60 0,0
24.09.2018 09:00:00 7,8 5,8 - - 4 2 - - WSW 1038,6 25 60 0,0
24.09.2018 08:00:00 4,5 3,9 - - 2 1 - - E 1037,9 28 18 0,0
24.09.2018 07:00:00 4,5 3,4 - - 8 4 - - NW 1037,1 29 0 0,0
24.09.2018 06:00:00 5,5 3,8 - - 11 6 - - NW 1036,6 30 0 0,0
24.09.2018 05:00:00 5,5 4,2 - - 9 5 - - NW 1036,6 30 0 0,0
24.09.2018 04:00:00 3,7 2,8 - - 5 3 - - W 1036,6 27 0 0,0
24.09.2018 03:00:00 4,5 4,2 - - 8 4 - - NW 1036,0 30 0 0,0
24.09.2018 02:00:00 4,2 3,9 - - 5 3 - - W 1035,3 30 0 0,0
24.09.2018 01:00:00 4,7 4,1 - - 8 4 - - NW 1034,4 30 - 0,0
24.09.2018 00:00:00 5,4 5,1 - - 8 4 - - WNW 1033,7 30 0 0,0
23.09.2018 23:00:00 3,5 3,0 - - 2 1 - - NNW 1032,5 28 0 0,0
23.09.2018 22:00:00 5,0 3,3 - - 4 2 - - WSW 1031,6 35 0 0,0
23.09.2018 21:00:00 7,6 4,4 - - 8 4 - - NW 1030,5 40 0 0,0
23.09.2018 20:00:00 9,1 4,5 - - 11 6 - - NNW 1029,3 40 0 0,0
23.09.2018 19:00:00 9,7 4,2 - - 11 6 - - NNW 1027,9 40 24 0,0
23.09.2018 18:00:00 11,6 4,4 - - 16 9 - - NW 1026,3 40 60 0,0
23.09.2018 17:00:00 12,1 4,9 - - 21 11 - - NNW 1025,2 40 24 0,0
23.09.2018 16:00:00 10,5 4,6 - - 24 13 50 27 NNW 1024,9 19 54 0,0
23.09.2018 15:00:00 12,5 4,5 - - 24 13 - - N 1023,1 35 54 0,0
23.09.2018 14:00:00 12,9 6,8 - - 15 8 - - NNW 1021,9 35 48 0,2
23.09.2018 13:00:00 10,9 6,7 - - 16 9 - - N 1021,1 11 48 0,0
23.09.2018 12:00:00 11,0 6,7 - - 9 5 - - NNW 1020,4 21 0 0,0
23.09.2018 11:00:00 9,9 7,5 - - 4 2 - - N 1019,6 35 0 0,0
23.09.2018 10:00:00 8,4 6,4 14,4 15,4 4 2 - - NNW 1019,0 35 0 0,4
23.09.2018 09:00:00 7,5 6,2 - - 4 2 - - ENE 1018,3 11 0 1,2
23.09.2018 08:00:00 8,0 5,8 - - 8 4 - - N 1017,6 12 0 0,8
23.09.2018 07:00:00 8,7 7,3 - - 5 3 - - N 1016,3 9 0 0,0
23.09.2018 06:00:00 9,0 7,1 - - 5 3 - - NNE 1015,8 20 0 0,0
23.09.2018 05:00:00 8,9 8,0 - - 2 1 - - N 1015,9 6 0 0,0
23.09.2018 04:00:00 9,0 8,0 - - 5 3 - - N 1015,8 10 0 0,2
23.09.2018 03:00:00 9,2 8,3 - - 9 5 - - N 1015,8 8 0 0,0
23.09.2018 02:00:00 9,2 8,3 - - 5 3 - - NNE 1016,0 9 0 0,0
23.09.2018 01:00:00 9,2 8,6 - - 8 4 - - NNE 1016,0 8 - 0,0
23.09.2018 00:00:00 9,2 8,7 - - 8 4 - - NNE 1015,7 7 0 0,0
22.09.2018 23:00:00 9,2 8,7 - - 4 2 - - NE 1015,7 15 0 0,0
22.09.2018 22:00:00 9,2 8,7 - - 8 4 - - NE 1015,6 17 0 0,0
22.09.2018 21:00:00 9,1 8,7 - - 8 4 - - NE 1015,5 19 0 0,0
22.09.2018 20:00:00 9,3 8,9 - - 5 3 - - E 1015,0 17 0 0,0
22.09.2018 19:00:00 9,6 8,9 - - 8 4 - - ENE 1015,0 5 0 0,0
22.09.2018 18:00:00 9,8 8,6 - - 8 4 - - E 1015,0 35 0 0,0
22.09.2018 17:00:00 9,7 8,7 - - 8 4 - - E 1015,6 13 0 0,2
22.09.2018 16:00:00 9,9 9,1 - - 9 5 - - E 1016,0 16 0 0,6
22.09.2018 15:00:00 9,5 7,8 - - 8 4 - - E 1016,6 17 0 1,0
22.09.2018 14:00:00 10,1 8,4 - - 2 1 - - NE 1017,7 7 0 1,4
22.09.2018 13:00:00 9,9 7,4 - - 2 1 - - WNW 1017,9 13 0 0,6
22.09.2018 12:00:00 10,6 7,6 - - 5 3 - - WSW 1018,7 10 0 0,8
22.09.2018 11:00:00 10,5 9,1 - - 2 1 - - SSW 1018,6 17 0 0,4
22.09.2018 10:00:00 10,2 8,8 14,9 15,5 4 2 - - WSW 1019,0 6 0 0,2
22.09.2018 09:00:00 9,4 8,5 - - 0 0 - - N 1018,2 27 0 0,0
22.09.2018 08:00:00 8,7 7,8 - - 4 2 - - SE 1018,5 27 0 0,0
22.09.2018 07:00:00 8,5 7,4 - - 0 0 - - N 1018,3 27 0 0,0
22.09.2018 06:00:00 9,7 7,5 - - 8 4 - - WSW 1018,4 29 0 0,0
22.09.2018 05:00:00 10,1 7,5 - - 5 3 - - W 1017,8 30 0 0,0
22.09.2018 04:00:00 9,7 7,6 - - 11 6 - - W 1017,8 30 0 0,0
22.09.2018 03:00:00 10,1 7,6 - - 13 7 - - W 1017,9 29 0 0,0
22.09.2018 02:00:00 10,3 7,6 - - 9 5 - - WSW 1017,6 30 0 0,0
22.09.2018 01:00:00 9,9 7,1 - - 9 5 - - S 1017,4 30 - 0,0
22.09.2018 00:00:00 10,1 7,8 - - 9 5 - - SSW 1017,2 30 0 0,0
21.09.2018 23:00:00 9,2 7,5 - - 11 6 - - WSW 1017,0 28 0 0,0
21.09.2018 22:00:00 11,5 8,1 - - 15 8 - - SW 1016,5 27 0 0,0
21.09.2018 21:00:00 11,9 8,3 - - 11 6 - - SSW 1016,0 27 0 0,0
21.09.2018 20:00:00 12,1 7,5 - - 15 8 - - W 1014,9 30 0 0,0
21.09.2018 19:00:00 13,1 7,2 - - 15 8 - - W 1013,9 30 24 0,0
21.09.2018 18:00:00 14,3 6,7 - - 21 11 - - W 1012,6 30 48 0,0
21.09.2018 17:00:00 14,8 6,0 - - 28 15 55 30 W 1011,3 35 60 0,0
21.09.2018 16:00:00 14,7 6,8 - - 31 17 67 36 W 1010,5 30 54 0,0
21.09.2018 15:00:00 15,0 7,0 - - 28 15 63 34 W 1009,6 35 60 0,0
21.09.2018 14:00:00 14,0 6,9 - - 29 16 70 38 W 1008,1 35 54 0,0
21.09.2018 13:00:00 12,9 9,4 - - 31 17 57 31 W 1006,9 18 24 0,0
21.09.2018 12:00:00 11,0 7,9 - - 34 18 63 34 W 1006,8 30 18 0,6
21.09.2018 11:00:00 9,9 7,0 - - 37 20 63 34 W 1007,1 4,1 24 0,4
21.09.2018 10:00:00 11,2 6,1 15,5 15,7 34 18 59 32 W 1005,6 35 60 0,0
21.09.2018 09:00:00 10,3 6,3 - - 28 15 50 27 W 1004,9 35 54 0,0
21.09.2018 08:00:00 8,7 6,1 - - 28 15 46 25 W 1004,2 35 0 0,2
21.09.2018 07:00:00 8,6 6,2 - - 24 13 - - W 1003,4 30 0 0,0
21.09.2018 06:00:00 8,4 5,9 - - 18 10 - - W 1002,6 35 0 0,0
21.09.2018 05:00:00 8,8 6,0 - - 18 10 50 27 W 1001,6 45 0 0,2
21.09.2018 04:00:00 9,0 6,7 - - 26 14 48 26 W 1000,5 15 0 0,4
21.09.2018 03:00:00 10,1 6,7 - - 16 9 - - W 998,8 45 0 0,0
21.09.2018 02:00:00 10,8 7,6 - - 22 12 55 30 W 996,6 40 0 0,0
21.09.2018 01:00:00 13,9 11,1 - - 31 17 59 32 WSW 993,8 29 - 0,0
21.09.2018 00:00:00 15,6 13,3 - - 31 17 55 30 SW 992,6 30 0 2,4
20.09.2018 23:00:00 16,5 16,1 - - 26 14 - - SW 992,7 4,3 0 4,4
20.09.2018 22:00:00 16,4 16,0 - - 11 6 - - S 994,2 1,8 0 4,6
20.09.2018 21:00:00 16,6 16,1 - - 18 10 - - SSW 996,3 3,4 0 5,4
20.09.2018 20:00:00 16,8 15,7 - - 15 8 - - S 997,8 4,3 0 1,0
20.09.2018 19:00:00 16,9 14,8 - - 18 10 - - SW 999,1 40 0 0,4
20.09.2018 18:00:00 16,8 15,8 - - 28 15 59 32 SW 1000,4 15 0 3,2
20.09.2018 17:00:00 17,8 16,4 - - 22 12 - - SW 1001,2 15 0 1,6
20.09.2018 16:00:00 17,6 16,4 - - 21 11 - - SSW 1001,9 5 0 1,4
20.09.2018 15:00:00 17,5 16,6 - - 22 12 - - SSW 1002,6 22 0 0,6
20.09.2018 14:00:00 13,7 13,5 - - 8 4 - - E 1004,2 5 0 1,0
20.09.2018 13:00:00 13,1 12,9 - - 9 5 - - ESE 1006,1 5 0 1,8
20.09.2018 12:00:00 12,6 12,4 - - 9 5 - - ESE 1007,9 3,2 0 3,6
20.09.2018 11:00:00 12,1 11,8 - - 4 2 - - E 1009,2 3,3 0 2,4
20.09.2018 10:00:00 11,7 11,5 15,7 15,7 9 5 - - ESE 1009,9 11 0 1,2
20.09.2018 09:00:00 11,4 11,3 - - 4 2 - - E 1010,6 14 0 0,0
20.09.2018 08:00:00 11,0 10,9 - - 4 2 - - E 1010,5 10 0 0,2
20.09.2018 07:00:00 10,9 10,7 - - 0 0 - - N 1010,8 10 0 0,0
20.09.2018 06:00:00 10,8 10,6 - - 0 0 - - N 1010,8 7 0 1,6
20.09.2018 05:00:00 10,8 10,5 - - 4 2 - - SE 1010,8 6 0 1,8
20.09.2018 04:00:00 10,8 10,4 - - 4 2 - - S 1011,3 10 0 0,4
20.09.2018 03:00:00 10,6 10,1 - - 0 0 - - N 1011,8 9 0 1,0
20.09.2018 02:00:00 10,9 10,0 - - 9 5 - - WSW 1012,3 12 0 0,8
20.09.2018 01:00:00 11,3 9,8 - - 15 8 - - WSW 1012,4 7 - 0,0
20.09.2018 00:00:00 11,9 9,6 - - 15 8 - - SW 1012,8 19 0 0,0
19.09.2018 23:00:00 12,0 9,4 - - 16 9 - - SW 1012,8 22 0 0,0
19.09.2018 22:00:00 12,1 9,3 - - 11 6 - - WSW 1012,9 21 0 0,0
19.09.2018 21:00:00 12,3 8,1 - - 16 9 - - WSW 1012,6 23 0 0,0
19.09.2018 20:00:00 12,7 8,7 - - 24 13 - - WSW 1012,0 21 0 0,0
19.09.2018 19:00:00 13,6 7,7 - - 21 11 - - WSW 1011,8 23 0 0,0
19.09.2018 18:00:00 15,0 7,5 - - 29 16 46 25 WSW 1011,0 22 48 0,0
19.09.2018 17:00:00 16,7 9,6 - - 34 18 61 33 WSW 1010,1 18 42 0,0
19.09.2018 16:00:00 17,8 10,7 - - 35 19 68 37 WSW 1009,0 16 12 0,0
19.09.2018 15:00:00 18,5 12,6 - - 37 20 65 35 WSW 1007,8 15 30 0,0
19.09.2018 14:00:00 17,5 15,3 - - 35 19 65 35 SW 1007,1 7 0 0,0
19.09.2018 13:00:00 17,7 14,2 - - 39 21 76 41 SW 1006,5 19 0 0,0
19.09.2018 12:00:00 18,8 12,6 - - 41 22 72 39 SW 1006,2 21 18 0,0
19.09.2018 11:00:00 19,0 11,4 - - 39 21 61 33 SW 1006,3 26 36 0,0

tt = temperature
td = dewpoint
tt -20cm = temperature -20cm
tt -100cm = temperature -100cm
ff = wind speed
fx = gusts
dd = wind direction
ppp = reduced air pressure
vv = visibility
sd = sunshine duration
rr = precipitation

Next stations